Location: Gwatt
(46.7204°N, 7.6223°E)
Time: 11:39:22
(UTC+00:00)

Transit 2A - Pass Details

Date: 18 May 2021
Orbit: 601 x 958 km, 66.7° (Epoch: 15 June)

Event Time Altitude Azimuth Distance (km) Brightness Sun altitude
Exits shadow 00:33:17 47° 262° (W) 813 5.9 -22.0°
Maximum altitude 00:34:09 57° 307° (NW) 718 5.9 -22.0°
Drops below altitude 10° 00:38:27 10° 27° (NNE) 1,952 9.2 -21.7°
Sets 00:40:44 0° 32° (NNE) 2,863 10.4 -21.6°
